Regional Weather Roundup
Issued by NWS Little Rock, AR

Home | Current Version | Previous Version | Text Only | Print | Product List | Glossary On
Versions: 1 2 3 4 5 6 7 8 9 10 11 12 13 14 15 16 17 18 19 20 21 22 23 24 25 26 27 28 29 30 31 32 33 34 35 36 37 38 39 40 41 42 43 44 45 46 47 48 49 50
685
ASUS44 KLZK 142005
RWRLZK

WEATHER ROUNDUP FOR ARKANSAS
NATIONAL WEATHER SERVICE LITTLE ROCK AR
200 PM CST SUN FEB 14 2016

NOTE: "FAIR" INDICATES FEW OR NO CLOUDS BELOW 12,000 FEET WITH NO
SIGNIFICANT WEATHER AND/OR OBSTRUCTIONS TO VISIBILITY.

ARZ001-003-010-029-142100-
NORTHWEST ARKANSAS

CITY           SKY/WX    TMP DP  RH WIND       PRES   REMARKS
FAYETTEVILLE   CLOUDY    38  38 100 S5        29.92F FOG
FORT SMITH     CLOUDY    37  28  70 NE9       29.95F
HARRISON       CLOUDY    32  27  81 SE6       29.94F WCI  26
BENTONVILLE    CLOUDY    39  36  87 S6        29.93F
ROGERS         CLOUDY    36  36 100 E6        29.92F FOG
SILOAM SPGS    CLOUDY    39  30  70 S5        29.93F
HIGHFILL       DRIZZLE   39  39 100 SW7       29.91F
SPRINGDALE     DRZL/FOG  39  39 100 S5        29.94F VSB 1
$$

ARZ004-005-016-142100-
NORTH CENTRAL ARKANSAS

CITY           SKY/WX    TMP DP  RH WIND       PRES   REMARKS
BATESVILLE     CLOUDY    32  28  86 N3        30.02F
FLIPPIN        CLOUDY    30  19  64 E5        29.96F WCI  25
MTN HOME       CLOUDY    29  25  85 E5        29.96F WCI  24
$$

ARZ040-041-142100-
WEST CENTRAL ARKANSAS

CITY           SKY/WX    TMP DP  RH WIND       PRES   REMARKS
MENA           CLOUDY    45  37  76 NW3       29.94F
MOUNT IDA      CLOUDY    43  36  76 CALM      29.93F
$$

ARZ009-017-025-026-028-142100-
NORTHEAST ARKANSAS

CITY           SKY/WX    TMP DP  RH WIND       PRES   REMARKS
JONESBORO      CLOUDY    34  25  69 N7        30.01F WCI  28
NEWPORT        LGT RAIN  37  28  70 N9        30.02F
WALNUT RIDGE   CLOUDY    28  23  80 NE9       30.04F WCI  20
BLYTHEVILLE    CLOUDY    39  24  55 SE3       30.01F
$$

ARZ022-023-033-042-044-142100-
CENTRAL ARKANSAS

CITY           SKY/WX    TMP DP  RH WIND       PRES   REMARKS
LITTLE ROCK    CLOUDY    52  36  54 W5        29.97F
N LITTLE ROCK  CLOUDY    48  39  70 W3        29.97F
SEARCY         CLOUDY    43  32  65 CALM      30.00F
HOT SPRINGS    CLOUDY    48  35  60 CALM      29.96F
RUSSELLVILLE   CLOUDY    37  24  59 E3        29.97F
CLINTON        CLOUDY    36  27  69 CALM      30.00F
$$

ARZ036-142100-
EAST ARKANSAS

CITY           SKY/WX    TMP DP  RH WIND       PRES   REMARKS
WEST MEMPHIS   CLOUDY    49  27  42 S21       29.96F
$$

ARZ050-053-066-070-073-142100-
SOUTHWEST ARKANSAS

CITY           SKY/WX    TMP DP  RH WIND       PRES   REMARKS
ARKADELPHIA    CLOUDY    55  46  71 S3        29.96F HAZE
CAMDEN         CLOUDY    66  46  48 S15G24    29.95F
TEXARKANA      CLOUDY    57  49  74 S7        29.95F
EL DORADO      CLOUDY    64  49  57 S10       29.97F
DE QUEEN       CLOUDY    50  38  63 NE6       29.94F
$$

ARZ056-057-069-142100-
SOUTHEAST ARKANSAS

CITY           SKY/WX    TMP DP  RH WIND       PRES   REMARKS
PINE BLUFF     CLOUDY    59  42  53 S16       29.96F
STUTTGART      CLOUDY    55  36  47 S15       29.96F
MONTICELLO     MOSUNNY   63  43  48 S15G23    29.98F

$$






USA.gov is the U.S. government's official web portal to all federal, state and local government web resources and services.